• In Netherlands
  • List of Countries
  • For 7 days
  • Water Temperature
  • Satellite Maps
  • Weather Map
  • Weather Widgets
  • user-avatar
    Login

    Hourly Weather Haradok

    Today, 29 March, Wednesday

    Time Temperature Precipitation Wind Pressure Humidity
    00:00 -2°C° 0 mm 4 mps 747 mmHg 80%
    01:00 -1°C° 0 mm 3 mps 747 mmHg 82%
    02:00 -2°C° 0 mm 3 mps 747 mmHg 83%
    03:00 -2°C° 0 mm 3 mps 748 mmHg 84%
    04:00 -3°C° 0 mm 2 mps 748 mmHg 84%
    05:00 -3°C° 0 mm 2 mps 748 mmHg 85%
    06:00 -2°C° 0 mm 2 mps 748 mmHg 78%
    07:00 -1°C° 0 mm 2 mps 748 mmHg 71%
    08:00 -1°C° 0 mm 2 mps 748 mmHg 65%
    09:00 +1°C° 0 mm 2 mps 748 mmHg 60%
    10:00 +2°C° 0 mm 2 mps 748 mmHg 55%
    11:00 +3°C° 0 mm 2 mps 748 mmHg 50%
    12:00 +3°C° 0 mm 2 mps 748 mmHg 51%
    13:00 +3°C° 0 mm 2 mps 747 mmHg 52%
    14:00 +4°C° 0 mm 2 mps 747 mmHg 52%
    15:00 +3°C° 0.1 mm 2 mps 746 mmHg 56%
    16:00 +3°C° 0.1 mm 2 mps 746 mmHg 60%
    17:00 +3°C° 0.1 mm 2 mps 746 mmHg 64%
    18:00 +2°C° 0.1 mm 2 mps 746 mmHg 67%
    19:00 +1°C° 0.1 mm 2 mps 746 mmHg 70%
    20:00 +1°C° 0.1 mm 2 mps 746 mmHg 73%
    21:00 -1°C° 0 mm 2 mps 746 mmHg 75%
    22:00 -1°C° 0 mm 2 mps 746 mmHg 76%
    23:00 -2°C° 0 mm 2 mps 747 mmHg 77%

    Tomorrow, 30 March, Thursday

    Time Temperature Precipitation Wind Pressure Humidity
    00:00 -2°C° 0 mm 2 mps 747 mmHg 76%
    01:00 -3°C° 0 mm 2 mps 748 mmHg 75%
    02:00 -3°C° 0 mm 2 mps 748 mmHg 74%
    03:00 -3°C° 0 mm 2 mps 749 mmHg 73%
    04:00 -4°C° 0 mm 2 mps 749 mmHg 72%
    05:00 -4°C° 0 mm 2 mps 750 mmHg 71%
    06:00 -4°C° 0 mm 3 mps 750 mmHg 66%
    07:00 -2°C° 0 mm 3 mps 751 mmHg 62%
    08:00 -1°C° 0 mm 3 mps 752 mmHg 57%
    09:00 -1°C° 0 mm 4 mps 752 mmHg 52%
    10:00 0°C° 0 mm 4 mps 753 mmHg 47%
    11:00 +1°C° 0 mm 4 mps 753 mmHg 43%
    12:00 +1°C° 0 mm 4 mps 754 mmHg 43%
    13:00 +1°C° 0 mm 5 mps 754 mmHg 44%
    14:00 +2°C° 0 mm 5 mps 754 mmHg 44%
    15:00 +1°C° 0 mm 4 mps 755 mmHg 47%
    16:00 +1°C° 0 mm 4 mps 755 mmHg 49%
    17:00 +2°C° 0 mm 3 mps 755 mmHg 51%
    18:00 0°C° 0 mm 3 mps 755 mmHg 56%
    19:00 -1°C° 0 mm 2 mps 756 mmHg 60%
    20:00 0°C° 0 mm 1 mps 756 mmHg 65%
    21:00 0°C° 0 mm 1 mps 757 mmHg 64%
    22:00 0°C° 0 mm 1 mps 757 mmHg 63%
    23:00 0°C° 0 mm 1 mps 757 mmHg 62%

    Day after tomorrow, 31 March, Friday

    Time Temperature Precipitation Wind Pressure Humidity
    00:00 -2°C° 0 mm 2 mps 757 mmHg 63%
    01:00 -2°C° 0 mm 2 mps 757 mmHg 64%
    02:00 -2°C° 0 mm 3 mps 757 mmHg 65%
    03:00 -2°C° 0 mm 3 mps 757 mmHg 64%
    04:00 -2°C° 0 mm 3 mps 756 mmHg 63%
    05:00 -1°C° 0 mm 3 mps 756 mmHg 62%
    06:00 -2°C° 0.1 mm 4 mps 755 mmHg 62%
    07:00 -1°C° 0.1 mm 4 mps 755 mmHg 62%
    08:00 0°C° 0.1 mm 5 mps 754 mmHg 63%
    09:00 0°C° 1.1 mm 5 mps 753 mmHg 70%
    10:00 -1°C° 1.1 mm 6 mps 752 mmHg 76%
    11:00 -1°C° 1.1 mm 6 mps 751 mmHg 83%
    12:00 +1°C° 1.8 mm 6 mps 750 mmHg 88%
    13:00 +1°C° 1.8 mm 6 mps 749 mmHg 93%
    14:00 +2°C° 1.8 mm 6 mps 748 mmHg 97%
    15:00 +2°C° 1.1 mm 6 mps 748 mmHg 97%
    16:00 +3°C° 1.1 mm 6 mps 747 mmHg 97%
    17:00 +4°C° 1.1 mm 6 mps 747 mmHg 97%
    18:00 +4°C° 0.7 mm 6 mps 747 mmHg 97%
    19:00 +4°C° 0.7 mm 6 mps 747 mmHg 97%
    20:00 +4°C° 0.7 mm 6 mps 747 mmHg 97%
    21:00 +4°C° 0.5 mm 6 mps 747 mmHg 97%
    22:00 +5°C° 0.5 mm 5 mps 747 mmHg 97%
    23:00 +6°C° 0.5 mm 5 mps 747 mmHg 97%

    1 April, Saturday

    Time Temperature Precipitation Wind Pressure Humidity
    00:00 +6°C° 0.6 mm 5 mps 747 mmHg 97%
    01:00 +5°C° 0.6 mm 6 mps 747 mmHg 97%
    02:00 +5°C° 0.6 mm 6 mps 747 mmHg 97%
    03:00 +6°C° 0.8 mm 5 mps 747 mmHg 97%
    04:00 +6°C° 0.8 mm 5 mps 747 mmHg 97%
    05:00 +7°C° 0.8 mm 5 mps 747 mmHg 97%
    06:00 +7°C° 0.6 mm 4 mps 747 mmHg 97%
    07:00 +7°C° 0.6 mm 4 mps 747 mmHg 97%
    08:00 +7°C° 0.6 mm 4 mps 747 mmHg 97%
    09:00 +8°C° 0.5 mm 3 mps 747 mmHg 96%
    10:00 +8°C° 0.5 mm 3 mps 748 mmHg 95%
    11:00 +9°C° 0.5 mm 3 mps 748 mmHg 94%
    12:00 +9°C° 0.2 mm 2 mps 748 mmHg 93%
    13:00 +10°C° 0.2 mm 2 mps 748 mmHg 92%
    14:00 +10°C° 0.2 mm 2 mps 748 mmHg 92%
    15:00 +11°C° 0 mm 1 mps 748 mmHg 92%
    16:00 +11°C° 0 mm 1 mps 748 mmHg 93%
    17:00 +11°C° 0 mm 1 mps 748 mmHg 94%
    18:00 +10°C° 0 mm 1 mps 749 mmHg 95%
    19:00 +9°C° 0 mm 1 mps 749 mmHg 96%
    20:00 +9°C° 0 mm 1 mps 749 mmHg 96%
    21:00 +7°C° 0 mm 2 mps 750 mmHg 97%
    22:00 +7°C° 0 mm 2 mps 750 mmHg 97%
    23:00 +7°C° 0 mm 2 mps 750 mmHg 97%

    2 April, Sunday

    Time Temperature Precipitation Wind Pressure Humidity
    00:00 +7°C° 0 mm 2 mps 750 mmHg 97%
    01:00 +6°C° 0 mm 2 mps 750 mmHg 98%
    02:00 +6°C° 0 mm 2 mps 750 mmHg 98%
    03:00 +6°C° 0 mm 2 mps 750 mmHg 98%
    04:00 +6°C° 0 mm 2 mps 750 mmHg 98%
    05:00 +6°C° 0 mm 2 mps 751 mmHg 98%
    06:00 +7°C° 0 mm 2 mps 751 mmHg 97%
    07:00 +7°C° 0 mm 2 mps 751 mmHg 96%
    08:00 +8°C° 0 mm 2 mps 751 mmHg 95%
    09:00 +9°C° 0 mm 2 mps 751 mmHg 93%
    10:00 +10°C° 0 mm 2 mps 751 mmHg 90%
    11:00 +12°C° 0 mm 2 mps 751 mmHg 87%
    12:00 +12°C° 0.1 mm 3 mps 751 mmHg 84%
    13:00 +13°C° 0.1 mm 3 mps 751 mmHg 80%
    14:00 +16°C° 0.1 mm 3 mps 751 mmHg 77%
    15:00 +14°C° 0.2 mm 3 mps 751 mmHg 78%
    16:00 +14°C° 0.2 mm 3 mps 750 mmHg 79%
    17:00 +15°C° 0.2 mm 2 mps 750 mmHg 81%
    18:00 +14°C° 0.1 mm 2 mps 750 mmHg 84%
    19:00 +12°C° 0.1 mm 3 mps 750 mmHg 87%
    20:00 +11°C° 0.1 mm 3 mps 750 mmHg 91%
    21:00 +10°C° 0 mm 3 mps 750 mmHg 92%
    22:00 +10°C° 0 mm 3 mps 750 mmHg 92%
    23:00 +9°C° 0 mm 3 mps 749 mmHg 93%

    3 April, Monday

    Time Temperature Precipitation Wind Pressure Humidity
    00:00 +9°C° 0 mm 3 mps 749 mmHg 94%
    01:00 +9°C° 0 mm 3 mps 749 mmHg 94%
    02:00 +8°C° 0 mm 3 mps 749 mmHg 94%
    03:00 +8°C° 0 mm 3 mps 748 mmHg 94%
    04:00 +7°C° 0 mm 3 mps 748 mmHg 94%
    05:00 +7°C° 0 mm 3 mps 748 mmHg 94%
    06:00 +8°C° 0 mm 3 mps 748 mmHg 91%
    07:00 +8°C° 0 mm 4 mps 748 mmHg 87%
    08:00 +10°C° 0 mm 4 mps 747 mmHg 84%
    09:00 +11°C° 0 mm 4 mps 747 mmHg 79%
    10:00 +13°C° 0 mm 4 mps 747 mmHg 75%
    11:00 +14°C° 0 mm 5 mps 747 mmHg 70%
    12:00 +15°C° 0.1 mm 5 mps 747 mmHg 67%
    13:00 +16°C° 0.1 mm 5 mps 746 mmHg 64%
    14:00 +17°C° 0.1 mm 5 mps 746 mmHg 62%
    15:00 +16°C° 0.3 mm 5 mps 746 mmHg 67%
    16:00 +15°C° 0.3 mm 4 mps 746 mmHg 72%
    17:00 +14°C° 0.3 mm 4 mps 746 mmHg 77%
    18:00 +13°C° 0.3 mm 3 mps 747 mmHg 83%
    19:00 +12°C° 0.3 mm 3 mps 747 mmHg 89%
    20:00 +12°C° 0.3 mm 2 mps 747 mmHg 94%
    21:00 +10°C° 0 mm 2 mps 748 mmHg 95%
    22:00 +9°C° 0 mm 2 mps 748 mmHg 96%
    23:00 +9°C° 0 mm 2 mps 748 mmHg 97%
    Show more